Regional Weather Roundup
Issued by NWS

Home | Current Version | Previous Version | Text Only | Print | Product List | Glossary Off
Versions: 1 2 3 4 5 6 7 8 9 10 11 12 13 14 15 16 17 18 19 20 21 22 23 24 25 26 27 28 29 30 31 32 33 34 35 36 37 38 39 40 41 42 43 44 45 46 47 48 49 50

000
ASUS43 KMKX 300011
RWRWI

WISCONSIN REGIONAL WEATHER ROUNDUP
NATIONAL WEATHER SERVICE MILWAUKEE/SULLIVAN WI
600 PM CST THU JAN 29 2015

NOTE: "FAIR" INDICATES FEW OR NO CLOUDS BELOW 12,000 FEET WITH NO
SIGNIFICANT WEATHER AND/OR OBSTRUCTIONS TO VISIBILITY.

WIZ001-002-006>008-014>016-023>028-300100-
NORTHWEST WISCONSIN

CITY           SKY/WX    TMP DP  RH WIND       PRES   REMARKS
SUPERIOR ARPT  MOCLDY    15   5  64 N8G16     30.42R WCI   5
6HR MIN TEMP:  15; 6HR MAX TEMP:  26;

ASHLAND        CLOUDY    20   9  62 NW12G23   30.34R WCI   8
6HR MIN TEMP:  20; 6HR MAX TEMP:  29; 6HR PCP: TRACE;

HAYWARD        CLOUDY    19   8  62 N10G22    30.32R WCI   7
6HR MIN TEMP:  19; 6HR MAX TEMP:  29;

SIREN          MOCLDY    19   8  62 N14G20    30.39R WCI   5
6HR MIN TEMP:  19; 6HR MAX TEMP:  28;

CUMBERLAND     CLOUDY    21  10  63 NW20G29   30.32R WCI   6
RICE LAKE      CLOUDY    21  11  64 NW8G21    30.34R WCI  12
6HR MIN TEMP:  21; 6HR MAX TEMP:  32;

CHETEK         CLOUDY    21  12  66 NW12G21   30.32R WCI   9
6HR MIN TEMP:  21; 6HR MAX TEMP:  32;

LADYSMITH      CLOUDY    22  13  66 N21       30.29R WCI   7
6HR MIN TEMP:  22; 6HR MAX TEMP:  32;

EAU CLAIRE     CLOUDY    25  13  60 NW20G30   30.30R WCI  11
6HR MIN TEMP:  25; 6HR MAX TEMP:  34;

MENOMONIE      CLOUDY    26  14  62 NW12      30.33R WCI  15
6HR MIN TEMP:  26; 6HR MAX TEMP:  34;

NEW RICHMOND   CLOUDY    21  12  68 NW17G23   30.37R WCI   7
6HR MIN TEMP:  21; 6HR MAX TEMP:  32;

OSCEOLA        CLOUDY    21  12  67 NW16      30.42R WCI   7
6HR MIN TEMP:  21; 6HR MAX TEMP:  31;

$$

WIZ003>005-009-010-017-018-300100-
NORTH CENTRAL WISCONSIN

CITY           SKY/WX    TMP DP  RH WIND       PRES   REMARKS
MANITOWISH WTR LGT SNOW  18  13  82 N15       30.20R WCI   3
6HR MIN TEMP:  18; 6HR MAX TEMP:  25;

ARBOR VITAE    MOCLDY    20  14  77 N15       30.19R WCI   6
6HR MIN TEMP:  20; 6HR MAX TEMP:  28;

WOODRUFF       MOCLDY    20  14  77 N15       30.19R WCI   6
6HR MIN TEMP:  20; 6HR MAX TEMP:  28;

RHINELANDER    LGT SNOW  19  13  77 NW9       30.18R WCI   8
6HR MIN TEMP:  19; 6HR MAX TEMP:  28; 6HR PCP: TRACE;

EAGLE RIVER    LGT SNOW  19  12  77 N10       30.16R WCI   7
6HR MIN TEMP:  19; 6HR MAX TEMP:  27;

LAND O LAKES   LGT SNOW  19  15  86 N12       30.17R WCI   6
6HR MIN TEMP:  19; 6HR MAX TEMP:  26;

PHILLIPS       FLURRIES  20  14  76 NW12G18   30.22R WCI   8
6HR MIN TEMP:  20; 6HR MAX TEMP:  30;

TOMAHAWK       CLOUDY    22  11  64 N13G18    30.20R WCI  10
6HR MIN TEMP:  22; 6HR MAX TEMP:  30;

MEDFORD        CLOUDY    23  14  68 N18       30.20R WCI   9
6HR MIN TEMP:  23; 6HR MAX TEMP:  31;

MERRILL        LGT SNOW  23  14  67 N13G28    30.19R WCI  12
6HR MIN TEMP:  23; 6HR MAX TEMP:  32;

$$

WIZ029-030-035-036-043>047-300100-
CENTRAL WISCONSIN

CITY           SKY/WX    TMP DP  RH WIND       PRES   REMARKS
WAUSAU         CLOUDY    26  14  60 NW15G28   30.17R WCI  14
6HR MIN TEMP:  26; 6HR MAX TEMP:  33; 6HR PCP: TRACE;

MOSINEE        LGT SNOW  27  18  69 N21       30.18R WCI  13
MARSHFIELD     CLOUDY    27  16  63 N18       30.20R WCI  14
6HR MIN TEMP:  27; 6HR MAX TEMP:  33;

STEVENS POINT  CLOUDY    27  14  56 NW12G24   30.18R WCI  17
6HR MIN TEMP:  27; 6HR MAX TEMP:  32;

WAUPACA        CLOUDY    32  17  53 NW16G22   30.16R WCI  22
6HR MIN TEMP:  32; 6HR MAX TEMP:  37;

WAUTOMA        CLOUDY    32  19  58 NW21      30.18R WCI  20
6HR MIN TEMP:  32; 6HR MAX TEMP:  35;

WISC RAPIDS    CLOUDY    29  16  58 NW18G31   30.20R WCI  16
6HR MIN TEMP:  29; 6HR MAX TEMP:  34;

CAMP DOUGLAS   CLOUDY    30  21  69 NW17G32   30.21R WCI  18
$$

WIZ011>013-019>022-031-037>040-048>050-300100-
NORTHEAST WISCONSIN

CITY           SKY/WX    TMP DP  RH WIND       PRES   REMARKS
ANTIGO         CLOUDY    20  14  76 N15G28    30.17R WCI   7
6HR MIN TEMP:  20; 6HR MAX TEMP:  29;

SHAWANO        CLOUDY    29  15  56 NW15G28   30.18R WCI  18
6HR MIN TEMP:  29; 6HR MAX TEMP:  36;

OCONTO         CLOUDY    27  15  59 MISG      30.16R
6HR MIN TEMP:  27; 6HR MAX TEMP:  34;

STURGEON BAY   CLOUDY    27  16  63 N25G32    30.14R WCI  11
6HR MIN TEMP:  27; 6HR MAX TEMP:  34;

GREEN BAY      CLOUDY    29  15  56 NW20G31   30.15R WCI  16
6HR MIN TEMP:  29; 6HR MAX TEMP:  35;

MANITOWOC      CLOUDY    31  20  63 N20G26    30.12R WCI  19
6HR MIN TEMP:  31; 6HR MAX TEMP:  35;

APPLETON       MOCLDY    28  18  64 N23G31    30.13R WCI  14
CLINTONVILLE   CLOUDY    30  18  59 N16G23    30.16R WCI  19
OSHKOSH        CLOUDY    31  19  61 N18       30.14R WCI  19
6HR MIN TEMP:  31; 6HR MAX TEMP:  35;

$$

WIZ032>034-041-042-053>061-300100-
SOUTHWEST WISCONSIN

CITY           SKY/WX    TMP DP  RH WIND       PRES   REMARKS
LA CROSSE      CLOUDY    30  17  58 N14       30.30R WCI  19
6HR MIN TEMP:  30; 6HR MAX TEMP:  39;

SPARTA         CLOUDY    29  18  62 NW15G21   30.27R WCI  18
6HR MIN TEMP:  29; 6HR MAX TEMP:  34;

VIROQUA        CLOUDY    28  20  71 NW23G30   30.23R WCI  14
6HR MIN TEMP:  28; 6HR MAX TEMP:  33;

BOSCOBEL       CLOUDY    35  21  56 NW16G28   30.25R WCI  25
6HR MIN TEMP:  35; 6HR MAX TEMP:  37;

PRAIRIE DU CHI CLOUDY    32  20  60 NW12G21   30.27R WCI  23
6HR MIN TEMP:  32; 6HR MAX TEMP:  36;

PLATTEVILLE    CLOUDY    33  25  72 W12       30.21R WCI  24
6HR MIN TEMP:  33; 6HR MAX TEMP:  35;

$$

WIZ056-057-062-063-064-067-068-300100-
SOUTH CENTRAL WISCONSIN

CITY           SKY/WX    TMP DP  RH WIND       PRES   REMARKS
REEDSBURG      CLOUDY    31  20  63 NW12G20   30.20R WCI  22
6HR MIN TEMP:  31; 6HR MAX TEMP:  33;

BARABOO/DELLS  CLOUDY    32  19  60 NW14G28   30.18R WCI  22
6HR MIN TEMP:  32; 6HR MAX TEMP:  34;

LONE ROCK      CLOUDY    33  21  61 NW14G21   30.22R WCI  23
6HR MIN TEMP:  33; 6HR MAX TEMP:  36;

MINERAL POINT  CLOUDY    34  21  60 NW12G24   30.19R WCI  25
MADISON        CLOUDY    33  20  58 NW10G24   30.16R WCI  25
6HR MIN TEMP:  33; 6HR MAX TEMP:  35;

MIDDLETON      CLOUDY    34  20  56 N15G23    30.18R WCI  24
6HR MIN TEMP:  34; 6HR MAX TEMP:  36;

WATERTOWN      CLOUDY    33  21  63 NW9       30.14R WCI  25
6HR MIN TEMP:  32; 6HR MAX TEMP:  33;

MONROE         CLOUDY    32  25  74 NW12G21   30.17R WCI  23
JANESVILLE     CLOUDY    36  21  55 NW13G18   30.17R WCI  27
$$

WIZ051-052-058>065-066-070>072-300100-
SOUTHEAST WISCONSIN

CITY           SKY/WX    TMP DP  RH WIND       PRES   REMARKS
MILWAUKEE      CLOUDY    35  22  58 NW13      30.12R WCI  26
6HR MIN TEMP:  33; 6HR MAX TEMP:  35;

WAUKESHA       CLOUDY    32  21  64 NW14G21   30.13R WCI  22
MILWAUKEE/TIMM CLOUDY    34  21  60 MISG      30.12R
RACINE         CLOUDY    35  22  58 NW14G21   30.14R WCI  26
6HR MIN TEMP:  34; 6HR MAX TEMP:  35;

BURLINGTON     CLOUDY    32  19  59 NW12      30.14R WCI  23
6HR MIN TEMP:  31; 6HR MAX TEMP:  32;

KENOSHA        CLOUDY    35  21  56 NW15G26   30.13R WCI  25
6HR MIN TEMP:  33; 6HR MAX TEMP:  35;

FOND DU LAC    CLOUDY    33  19  56 N12       30.13R WCI  24
6HR MIN TEMP:  33; 6HR MAX TEMP:  35;

SHEBOYGAN      CLOUDY    32  19  58 N15G26    30.11R WCI  22
6HR MIN TEMP:  32; 6HR MAX TEMP:  34;

WEST BEND      CLOUDY    32  19  59 N16G22    30.12R WCI  21
JUNEAU         CLOUDY    32  19  58 NW13G24   30.14R WCI  23
6HR MIN TEMP:  32; 6HR MAX TEMP:  33;

$$

LSZ147-162-300100-
LAKE SUPERIOR

STATION/POSITION TIME  TEMP    WIND        PRES    WAVE
                       AIR SEA DIR/SP/G            HT/PER
                 (UTC) (F)     (DEG/KT/KT) (MB)    (FT/S)
DEVILS ISLAND    0000   19     340/ 23/ 28 1029.0R
PORT WING        2300   21     310/ 20     1027.4R
SAXON HARBOR     2300   24     330/ 22     1025.1R
$$

LMZ867-665-643>646-300100-
LAKE MICHIGAN

STATION/POSITION TIME  TEMP    WIND        PRES    WAVE
                       AIR SEA DIR/SP/G            HT/PER


USA.gov is the U.S. government's official web portal to all federal, state and local government web resources and services.